• en Belgique
  • Liste des pays
  • À 7 jours
  • Température de l'eau
  • Carte satellitaire
  • Carte météo
  • Widgets météo
  • user-avatar
    Se connecter

    Météo par heure à Iraklio

    Ce jour, 23 Septembre, Dimanche

    Heure Température Précipitation Vent Pression Humidité
    00:00 +25°C° 0 mm 4 m/s 756 mmHg 63%
    01:00 +25°C° 0 mm 4 m/s 756 mmHg 62%
    02:00 +25°C° 0 mm 4 m/s 756 mmHg 61%
    03:00 +23°C° 0 mm 4 m/s 756 mmHg 62%
    04:00 +23°C° 0 mm 4 m/s 756 mmHg 64%
    05:00 +23°C° 0 mm 4 m/s 756 mmHg 65%
    06:00 +25°C° 0 mm 4 m/s 756 mmHg 63%
    07:00 +26°C° 0 mm 4 m/s 756 mmHg 61%
    08:00 +26°C° 0 mm 3 m/s 756 mmHg 60%
    09:00 +28°C° 0 mm 3 m/s 756 mmHg 54%
    10:00 +29°C° 0 mm 3 m/s 757 mmHg 49%
    11:00 +30°C° 0 mm 3 m/s 757 mmHg 44%
    12:00 +30°C° 0 mm 3 m/s 757 mmHg 42%
    13:00 +31°C° 0 mm 3 m/s 757 mmHg 40%
    14:00 +33°C° 0 mm 3 m/s 757 mmHg 38%
    15:00 +31°C° 0 mm 3 m/s 757 mmHg 42%
    16:00 +30°C° 0 mm 3 m/s 756 mmHg 46%
    17:00 +30°C° 0 mm 3 m/s 756 mmHg 49%
    18:00 +29°C° 0 mm 3 m/s 756 mmHg 53%
    19:00 +28°C° 0 mm 3 m/s 756 mmHg 57%
    20:00 +27°C° 0 mm 3 m/s 756 mmHg 60%
    21:00 +27°C° 0 mm 3 m/s 757 mmHg 61%
    22:00 +26°C° 0 mm 3 m/s 757 mmHg 63%
    23:00 +26°C° 0 mm 4 m/s 757 mmHg 64%

    Demain, 24 Septembre, Lundi

    Heure Température Précipitation Vent Pression Humidité
    00:00 +25°C° 0 mm 4 m/s 756 mmHg 61%
    01:00 +25°C° 0 mm 4 m/s 756 mmHg 59%
    02:00 +25°C° 0 mm 4 m/s 756 mmHg 57%
    03:00 +25°C° 0 mm 4 m/s 756 mmHg 58%
    04:00 +25°C° 0 mm 4 m/s 755 mmHg 59%
    05:00 +23°C° 0 mm 4 m/s 755 mmHg 60%
    06:00 +25°C° 0 mm 3 m/s 755 mmHg 58%
    07:00 +26°C° 0 mm 3 m/s 755 mmHg 56%
    08:00 +27°C° 0 mm 3 m/s 755 mmHg 54%
    09:00 +28°C° 0 mm 3 m/s 755 mmHg 48%
    10:00 +30°C° 0 mm 3 m/s 755 mmHg 43%
    11:00 +31°C° 0 mm 2 m/s 755 mmHg 37%
    12:00 +31°C° 0 mm 3 m/s 755 mmHg 37%
    13:00 +32°C° 0 mm 4 m/s 755 mmHg 36%
    14:00 +33°C° 0 mm 4 m/s 754 mmHg 36%
    15:00 +32°C° 0 mm 4 m/s 754 mmHg 38%
    16:00 +32°C° 0 mm 4 m/s 754 mmHg 41%
    17:00 +30°C° 0 mm 3 m/s 753 mmHg 43%
    18:00 +29°C° 0 mm 3 m/s 754 mmHg 49%
    19:00 +28°C° 0 mm 2 m/s 754 mmHg 56%
    20:00 +27°C° 0 mm 2 m/s 754 mmHg 62%
    21:00 +27°C° 0 mm 2 m/s 754 mmHg 62%
    22:00 +26°C° 0 mm 2 m/s 754 mmHg 62%
    23:00 +26°C° 0 mm 2 m/s 754 mmHg 62%

    Après-demain, 25 Septembre, Mardi

    Heure Température Précipitation Vent Pression Humidité
    00:00 +25°C° 0 mm 2 m/s 754 mmHg 62%
    01:00 +25°C° 0 mm 2 m/s 754 mmHg 62%
    02:00 +25°C° 0 mm 3 m/s 753 mmHg 63%
    03:00 +25°C° 0 mm 2 m/s 753 mmHg 64%
    04:00 +24°C° 0 mm 2 m/s 753 mmHg 65%
    05:00 +24°C° 0 mm 2 m/s 753 mmHg 66%
    06:00 +25°C° 0 mm 3 m/s 753 mmHg 63%
    07:00 +26°C° 0 mm 3 m/s 753 mmHg 60%
    08:00 +27°C° 0 mm 3 m/s 753 mmHg 57%
    09:00 +28°C° 0 mm 3 m/s 754 mmHg 54%
    10:00 +29°C° 0 mm 3 m/s 754 mmHg 52%
    11:00 +30°C° 0 mm 3 m/s 754 mmHg 50%
    12:00 +32°C° 0 mm 4 m/s 754 mmHg 48%
    13:00 +32°C° 0 mm 5 m/s 754 mmHg 47%
    14:00 +33°C° 0 mm 6 m/s 754 mmHg 46%
    15:00 +32°C° 0 mm 7 m/s 754 mmHg 49%
    16:00 +29°C° 0 mm 7 m/s 754 mmHg 52%
    17:00 +28°C° 0 mm 8 m/s 754 mmHg 56%
    18:00 +27°C° 0 mm 8 m/s 754 mmHg 59%
    19:00 +26°C° 0 mm 9 m/s 755 mmHg 63%
    20:00 +26°C° 0 mm 9 m/s 755 mmHg 66%
    21:00 +24°C° 0 mm 10 m/s 755 mmHg 66%
    22:00 +24°C° 0 mm 10 m/s 755 mmHg 66%
    23:00 +24°C° 0 mm 10 m/s 755 mmHg 65%

    26 Septembre, Mercredi

    Heure Température Précipitation Vent Pression Humidité
    00:00 +24°C° 0 mm 11 m/s 755 mmHg 66%
    01:00 +23°C° 0 mm 11 m/s 755 mmHg 66%
    02:00 +23°C° 0 mm 11 m/s 755 mmHg 66%
    03:00 +23°C° 0 mm 12 m/s 755 mmHg 65%
    04:00 +22°C° 0 mm 12 m/s 755 mmHg 64%
    05:00 +22°C° 0 mm 12 m/s 755 mmHg 63%
    06:00 +22°C° 0 mm 13 m/s 755 mmHg 60%
    07:00 +22°C° 0 mm 13 m/s 756 mmHg 57%
    08:00 +23°C° 0 mm 13 m/s 756 mmHg 54%
    09:00 +23°C° 0 mm 13 m/s 756 mmHg 51%
    10:00 +24°C° 0 mm 14 m/s 756 mmHg 48%
    11:00 +26°C° 0 mm 14 m/s 757 mmHg 45%
    12:00 +24°C° 0 mm 14 m/s 756 mmHg 45%
    13:00 +24°C° 0 mm 14 m/s 756 mmHg 45%
    14:00 +24°C° 0 mm 14 m/s 756 mmHg 44%
    15:00 +23°C° 0.1 mm 14 m/s 756 mmHg 47%
    16:00 +22°C° 0.1 mm 14 m/s 756 mmHg 50%
    17:00 +22°C° 0.1 mm 15 m/s 756 mmHg 53%
    18:00 +20°C° 0.1 mm 14 m/s 756 mmHg 55%
    19:00 +19°C° 0.1 mm 14 m/s 756 mmHg 57%
    20:00 +19°C° 0.1 mm 14 m/s 756 mmHg 58%
    21:00 +18°C° 0.1 mm 14 m/s 756 mmHg 59%
    22:00 +18°C° 0.1 mm 14 m/s 756 mmHg 60%
    23:00 +18°C° 0.1 mm 14 m/s 756 mmHg 60%

    27 Septembre, Jeudi

    Heure Température Précipitation Vent Pression Humidité
    00:00 +18°C° 0.3 mm 13 m/s 755 mmHg 61%
    01:00 +18°C° 0.3 mm 13 m/s 754 mmHg 62%
    02:00 +17°C° 0.3 mm 12 m/s 754 mmHg 62%
    03:00 +17°C° 0.8 mm 12 m/s 753 mmHg 63%
    04:00 +17°C° 0.8 mm 11 m/s 753 mmHg 64%
    05:00 +17°C° 0.8 mm 11 m/s 752 mmHg 64%
    06:00 +17°C° 1.1 mm 10 m/s 752 mmHg 63%
    07:00 +18°C° 1.1 mm 10 m/s 751 mmHg 61%
    08:00 +18°C° 1.1 mm 9 m/s 751 mmHg 60%
    09:00 +20°C° 0.6 mm 8 m/s 751 mmHg 58%
    10:00 +20°C° 0.6 mm 6 m/s 750 mmHg 57%
    11:00 +21°C° 0.6 mm 5 m/s 750 mmHg 55%
    12:00 +21°C° 0.1 mm 4 m/s 750 mmHg 55%
    13:00 +21°C° 0.1 mm 4 m/s 749 mmHg 55%
    14:00 +22°C° 0.1 mm 4 m/s 749 mmHg 55%
    15:00 +21°C° 0.1 mm 3 m/s 749 mmHg 55%
    16:00 +21°C° 0.1 mm 3 m/s 749 mmHg 55%
    17:00 +21°C° 0.1 mm 2 m/s 748 mmHg 55%
    18:00 +21°C° 0.1 mm 2 m/s 749 mmHg 58%
    19:00 +21°C° 0.1 mm 2 m/s 749 mmHg 60%
    20:00 +20°C° 0.1 mm 2 m/s 749 mmHg 63%
    21:00 +20°C° 0.2 mm 3 m/s 749 mmHg 64%
    22:00 +20°C° 0.2 mm 3 m/s 749 mmHg 66%
    23:00 +20°C° 0.2 mm 3 m/s 748 mmHg 68%

    28 Septembre, Vendredi

    Heure Température Précipitation Vent Pression Humidité
    00:00 +19°C° 0.1 mm 3 m/s 748 mmHg 69%
    01:00 +19°C° 0.1 mm 3 m/s 748 mmHg 70%
    02:00 +19°C° 0.1 mm 3 m/s 748 mmHg 72%
    03:00 +19°C° 0.1 mm 3 m/s 748 mmHg 72%
    04:00 +19°C° 0.1 mm 4 m/s 748 mmHg 71%
    05:00 +18°C° 0.1 mm 4 m/s 748 mmHg 71%
    06:00 +19°C° 0.1 mm 4 m/s 748 mmHg 69%
    07:00 +20°C° 0.1 mm 4 m/s 748 mmHg 68%
    08:00 +21°C° 0.1 mm 4 m/s 749 mmHg 66%
    09:00 +21°C° 0.1 mm 5 m/s 749 mmHg 65%
    10:00 +22°C° 0.1 mm 5 m/s 749 mmHg 64%
    11:00 +22°C° 0.1 mm 5 m/s 750 mmHg 63%
    12:00 +23°C° 0.1 mm 5 m/s 750 mmHg 62%
    13:00 +23°C° 0.1 mm 4 m/s 750 mmHg 61%
    14:00 +23°C° 0.1 mm 4 m/s 749 mmHg 61%
    15:00 +23°C° 0.1 mm 4 m/s 750 mmHg 63%
    16:00 +22°C° 0.1 mm 4 m/s 750 mmHg 65%
    17:00 +22°C° 0.1 mm 3 m/s 750 mmHg 68%
    18:00 +22°C° 0.1 mm 3 m/s 750 mmHg 69%
    19:00 +21°C° 0.1 mm 3 m/s 750 mmHg 70%
    20:00 +21°C° 0.1 mm 3 m/s 751 mmHg 71%
    21:00 +21°C° 0.1 mm 3 m/s 751 mmHg 72%
    22:00 +21°C° 0.1 mm 3 m/s 751 mmHg 73%
    23:00 +21°C° 0.1 mm 3 m/s 751 mmHg 74%
    Voir plus